Location: Lucioux
(47.2096°N, 1.5330°E)
Time: 22:39:21
(UTC+00:00)

Daily predictions for brighter satellites

Satellite Brightness Start Highest point End
(mag) Time Altitude Azimuth Time Altitude Azimuth Time Altitude Azimuth
IRS-1A Rocket 4.4 20:25:29 10° SSE 20:31:07 73° ENE 20:36:40 10° N
SL-14 R/B 4.2 20:28:27 10° SSE 20:31:53 30° E 20:35:20 10° NNE
Cosmos 1461 4.1 20:31:57 10° WSW 20:35:36 43° NW 20:39:23 10° NNE
SL-8 R/B 3.9 20:33:13 10° W 20:38:01 76° N 20:42:48 10° E
In-Cosmos 22 4.4 20:34:23 10° S 20:40:01 60° E 20:45:35 10° NNE
Cosmos 2237 Rocket 2.3 20:36:59 10° NNW 20:42:42 88° ENE 20:48:24 10° SSE
Cosmos 1666 Rocket 3.6 20:45:29 10° N 20:49:57 83° ENE 20:54:24 10° S
USA 305 2.8 20:46:14 10° SSW 20:49:59 42° SE 20:53:21 10° ENE
Meteor 2-10 Rocket 3.7 20:44:18 10° N 20:50:03 83° ENE 20:55:35 10° SSE
Cosmos 1953 4.5 20:52:02 10° NE 20:53:35 12° ENE 20:55:08 10° E
Okean-O 3.1 20:51:30 10° S 20:55:49 58° W 21:00:10 10° NNW
NOSS 2-3 (D) 4.5 20:51:04 10° NW 20:56:23 89° WSW 21:03:14 12° SE
Cosmos 1633 Rocket 3.0 20:55:45 10° N 21:00:05 86° E 21:04:24 10° S
Meteor 1-22 Rocket 4.4 20:55:01 10° N 21:00:16 55° ENE 21:05:14 12° SSE
Lacrosse 4 Rocket 1.8 20:56:19 10° NNW 21:00:27 53° NE 21:04:06 13° SE
NOSS 3-4 (A) 3.3 20:55:52 10° SW 21:01:13 85° NW 21:07:09 10° NE
NOSS 3-4 (C) 3.2 20:55:59 10° SW 21:01:19 86° NW 21:07:15 10° NE
COSMOS 2428 4.3 20:56:56 10° NW 21:01:48 29° WSW 21:06:38 10° SSW
Cosmos 1818 3.6 20:59:01 10° SSW 21:04:22 64° ESE 21:09:47 10° NE
SAR-Lupe-2 3.6 21:04:36 11° SSE 21:07:58 86° WSW 21:11:36 10° NNW
IKONOS-2 4.4 21:04:40 10° NNE 21:08:50 82° ESE 21:12:59 10° SSW
Cosmos 1455 1.8 21:08:25 10° NNW 21:11:06 56° W 21:13:31 12° S
Cosmos 1328 Rocket 3.8 21:07:55 10° SSW 21:12:17 73° W 21:16:42 10° N
ARIANE 6 FM1 Upper Stage 3.7 21:09:01 10° WNW 21:12:49 36° WSW 21:16:17 12° S
Cosmos 614 Rocket 4.1 21:08:50 10° SSW 21:14:00 83° WNW 21:19:10 10° NNE
Cosmos 2297 Rocket 2.8 21:08:25 10° SW 21:14:01 63° WNW 21:19:41 10° NNE
Ariane Rocket 3.0 21:09:58 13° SSE 21:14:32 74° ENE 21:19:38 10° N
SPOT 3 Rocket 3.5 21:14:36 13° SSE 21:19:17 87° ENE 21:24:28 10° NNW
Cosmos 1470 Rocket 3.5 21:16:16 10° N 21:20:38 89° WSW 21:24:22 14° S
GP-B 4.2 21:17:31 10° NNE 21:21:23 29° E 21:23:59 17° SE
Cosmos 1758 3.2 21:19:35 10° NNW 21:23:19 77° W 21:26:21 15° S
Cosmos 2084 Rocket 3.5 21:21:58 10° NW 21:26:08 71° NE 21:29:07 18° SE
Meteor 1-13 Rocket 4.3 21:22:32 10° S 21:28:28 85° ESE 21:34:23 10° NNE
ATLAS CENTAUR R/B 1.3 21:24:51 10° NW 21:28:39 64° SW 21:31:05 20° SSE
Cosmos 1933 Rocket 3.8 21:27:24 10° N 21:31:45 58° ENE 21:34:40 20° SSE
Cosmos 2173 Rocket 4.1 21:25:45 10° N 21:31:57 79° W 21:37:34 12° S
Cosmos 1992 Rocket 4.0 21:29:10 10° NNW 21:34:24 86° WSW 21:38:16 18° SSE
PSLV R/B 3.5 21:33:05 19° S 21:35:20 69° WSW 21:38:37 10° NNW
USA 276 3.4 21:35:33 10° WSW 21:36:45 15° SW 21:36:45 15° SW
SL-16 R/B 2.3 21:31:49 10° NNW 21:37:31 73° ENE 21:41:38 19° SE
Terra 3.6 21:34:26 10° SSW 21:38:24 27° W 21:42:23 10° NW
Cosmos 1864 Rocket 4.5 21:32:45 10° N 21:38:58 84° E 21:43:59 17° S
Cosmos 1515 Rocket 3.6 21:34:51 11° S 21:39:04 87° W 21:43:32 10° N
Meteor 1-23 Rocket 4.2 21:35:30 14° S 21:40:20 66° E 21:45:54 10° NNE
Cosmos 2227 Rocket 2.4 21:36:54 10° SSW 21:42:32 77° WNW 21:48:14 10° NNE
RESURS DK-1 2.2 21:39:40 10° SSW 21:43:41 83° ESE 21:47:43 10° NNE
Cosmos 2233 Rocket 4.2 21:38:52 10° N 21:45:08 60° ENE 21:49:37 20° SSE
COSMOS 2455 3.6 21:40:12 10° NW 21:45:51 43° WSW 21:50:27 15° S
Cosmos 1869 Rocket 3.9 21:41:44 10° N 21:46:04 53° ENE 21:48:34 23° SE
Meteor 1-21 4.4 21:42:07 17° S 21:46:31 59° E 21:52:10 10° NNE
Cosmos 2263 Rocket 2.2 21:41:33 10° S 21:47:07 62° ESE 21:52:45 10° NNE
Cosmos 2100 Rocket 4.4 21:41:36 10° NNW 21:47:39 58° W 21:53:20 11° S
Okean O Rocket 4.2 21:47:53 10° WSW 21:49:52 13° W 21:51:50 10° WNW
Iridium 51 4.0 21:47:26 10° N 21:51:08 87° E 21:53:07 25° S
Okean 2 4.4 21:50:02 22° SE 21:51:26 28° E 21:54:49 10° NNE
Okean 3 4.4 21:50:57 23° SE 21:52:34 30° E 21:56:10 10° NNE
Cosmos 1725 Rocket 4.1 21:50:45 10° N 21:57:03 80° W 22:01:55 18° S
Cosmos 1437 Rocket 3.0 21:55:31 14° SSW 21:58:23 58° WNW 22:01:56 10° N
Cosmos 1943 4.0 21:53:33 10° NNW 21:58:58 42° NE 22:03:04 17° ESE
ASTEX 1 4.4 21:55:44 10° NNE 22:00:08 31° E 22:02:22 22° SE
Cosmos 2219 3.2 22:02:23 11° SSW 22:07:57 78° ESE 22:13:44 10° NNE
Geosat 3.9 22:04:25 10° NNE 22:09:27 89° ESE 22:14:28 10° SSW
Cosmos 909 Rocket 4.5 22:02:19 10° NW 22:10:29 73° WSW 22:14:56 23° SSE
COBE Rocket 3.9 22:06:37 10° NNE 22:11:43 88° ESE 22:15:12 20° SSW
USA 290 2.0 22:14:13 36° SSW 22:15:22 80° ESE 22:18:35 10° NNE
Meteor 2-16 Rocket 4.4 22:12:55 21° S 22:17:12 80° E 22:23:18 10° NNE
Cosmos 2082 3.7 22:12:58 17° SSW 22:17:25 70° ESE 22:23:09 10° NNE
Cosmos 2292 Rocket 3.2 22:18:12 36° ESE 22:18:27 37° E 22:21:11 10° NNE
USA 305 3.5 22:14:58 10° W 22:18:37 44° NNW 22:21:37 10° NE
SL-8 R/B 3.7 22:15:39 10° WNW 22:20:23 64° SSW 22:22:54 27° SE
Okean 1-7 4.3 22:19:41 22° ESE 22:20:45 24° E 22:24:07 10° NE
ARIANE 5 R/B 3.2 22:20:49 26° SE 22:22:56 46° ENE 22:27:13 10° N
SL-4 R/B 2.1 22:21:17 15° SW 22:24:24 47° SE 22:28:17 10° ENE
Cosmos 2237 Rocket 4.4 22:22:47 10° WNW 22:25:56 15° W 22:29:05 10° SW
Cosmos 1953 2.5 22:25:33 10° NNW 22:29:15 58° W 22:30:44 32° SSW
Cosmos 1140 Rocket 3.4 22:26:48 23° SSW 22:30:05 79° ESE 22:35:14 10° NNE
Cosmos 2061 Rocket 4.3 22:29:23 10° NNW 22:35:36 64° W 22:39:36 23° SSW
Cosmos 1703 3.0 22:34:57 46° SSE 22:35:42 60° E 22:39:09 10° NNE
NOSS 3-1 (C) 4.2 22:29:37 10° NW 22:36:41 73° NE 22:43:29 18° SE
Lacrosse 4 Rocket 3.4 22:35:05 10° WNW 22:38:01 18° WSW 22:39:42 15° SW
Cosmos 1892 2.2 22:43:00 54° ESE 22:43:05 54° E 22:46:02 10° NNE
CZ-4C R/B 3.1 22:48:34 10° N 22:51:48 62° WNW 22:52:42 41° SW
USA 307 4.2 22:54:11 21° E 22:54:11 21° E 22:56:01 10° ENE
Cosmos 407 Rocket 3.4 22:50:55 32° S 22:53:17 70° ESE 22:58:23 10° NNE
Cosmos 2228 Rocket 3.0 22:54:32 38° S 22:56:13 81° E 23:00:41 10° N
Cosmos 1844 Rocket 3.1 22:54:47 32° SSE 22:56:57 47° ESE 23:02:22 10° NE
Cosmos 2251 Rocket 3.8 22:59:04 34° SSE 23:01:06 53° ESE 23:06:19 10° NNE
Cosmos 1844 4.1 22:59:50 32° SSE 23:01:46 45° ESE 23:07:02 10° NE
USA 234 4.3 22:57:50 10° ENE 23:02:59 24° SE 23:03:50 24° SE
USA 59 Rocket 1.4 23:01:53 10° NNW 23:04:59 30° NE 23:08:26 12° ESE
GRACE-FO 1 4.5 23:05:54 54° SSW 23:06:33 72° W 23:10:01 10° N
Cosmos 1707 Rocket 3.6 23:05:01 35° SSW 23:06:43 70° W 23:11:01 10° N
GRACE-FO 2 4.5 23:06:18 53° SSW 23:06:57 71° W 23:10:25 10° N
Landsat 5 3.4 23:04:20 10° NNE 23:08:37 82° ESE 23:09:56 43° S
Cosmos 540 Rocket 3.4 23:07:16 10° NNW 23:12:25 85° ENE 23:14:32 36° SSE
Cosmos 1190 Rocket 4.3 23:12:31 36° SSE 23:14:22 53° ESE 23:19:30 10° NNE
ALOS 2 2.5 23:14:27 42° SSE 23:15:54 84° ENE 23:20:18 10° NNW
Cosmos 1733 Rocket 3.9 23:16:23 10° NNW 23:20:30 41° W 23:21:58 30° SW
SL-16 R/B 4.0 23:17:07 10° WNW 23:20:58 19° W 23:23:29 14° SW
Cosmos 468 Rocket 4.0 23:18:04 10° NNW 23:23:15 76° ENE 23:25:26 35° SSE
Cosmos 841 Rocket 4.5 23:19:24 10° N 23:24:23 41° ENE 23:27:33 20° ESE
NOSS 3-1 (A) 4.2 23:17:57 10° NW 23:25:03 73° NE 23:32:25 15° SE
Spot 1 4.5 23:21:52 10° NNE 23:26:49 66° ESE 23:28:37 39° S
ATLAS 2AS CENTAUR R/B 3.4 23:25:05 29° SSE 23:27:41 39° ESE 23:34:01 10° NE
BREEZE-M DEB (TANK) 4.2 23:18:57 10° SSW 23:28:12 32° SSE 23:31:16 10° E
Cosmos 1464 Rocket 4.0 23:21:42 10° N 23:28:00 78° W 23:31:00 33° S
Meteor 2-5 Rocket 4.3 23:27:46 31° SSE 23:30:16 49° E 23:35:58 10° NNE
Cosmos 2263 Rocket 4.1 23:26:40 10° WSW 23:31:27 27° NW 23:36:16 10° N
Cosmos 2034 Rocket 4.0 23:28:39 10° N 23:34:55 82° E 23:37:59 33° SSE
Cosmos 1833 Rocket 4.4 23:33:27 10° N 23:38:17 28° NE 23:43:06 10° ESE
SeaSat 1 2.6 23:37:33 30° SE 23:39:57 71° ENE 23:44:51 10° NNW
Cosmos 1908 Rocket 3.5 23:36:27 10° N 23:40:49 81° W 23:42:02 47° S
Cosmos 1943 4.1 23:37:45 10° NW 23:42:54 36° WSW 23:44:50 28° SW
Aureole 3 Rocket 3.6 23:40:05 10° NNW 23:43:00 32° W 23:43:25 31° WSW
Cosmos 1763 Rocket 4.3 23:46:06 10° NW 23:50:48 37° WSW 23:52:18 30° SW
Cosmos 1271 Rocket 2.9 23:50:19 47° WSW 23:50:59 57° WNW 23:54:33 10° N
